Location: Capannuccia
(43.7000°N, 11.3000°E)
Time: 19:06:46
(UTC+00:00)

Cosmos 1709 Rocket - Pass Details

Date: 07 June 2020
Orbit: 949 x 1001 km, 82.9° (Epoch: 06 July)

Event Time Altitude Azimuth Distance (km) Brightness Sun altitude
Exits shadow 00:05:03 46° 196° (SSW) 1,263 4.1 -22.5°
Maximum altitude 00:07:02 82° 277° (W) 971 3.9 -22.4°
Drops below altitude 10° 00:13:15 10° 6° (N) 2,712 7.4 -22.1°
Sets 00:15:47 0° 8° (N) 3,670 8.5 -22.0°
